Henderson, KY

12:20 AM CDT on July 24, 2019 (GMT -0500)
Henderson City-County

Weather History for KEHR - May, 2019

Change the Weather History Date:

Monday, May 20, 2019

  Actual Average Record
Temperature  
Mean Temperature 67 °F -  
Max Temperature 75 °F 79 °F 95 °F (1941)
Min Temperature 59 °F 57 °F 41 °F (2002)
Cooling Degree Days 2    
Growing Degree Days 17 (Base 50)    
Moisture  
Dew Point 53 °F    
Average Humidity 62    
Maximum Humidity 78    
Minimum Humidity 46    
Precipitation  
Precipitation 0.00 in - - ()
Sea Level Pressure  
Sea Level Pressure 30.03 in    
Wind  
Wind Speed 6 mph (NW)    
Max Wind Speed 14 mph    
Max Gust Speed -    
Visibility 10 miles    
Events      
Averages and records for this station are not official NWS values.
T = Trace of Precipitation, MM = Missing Value Source: NWS Daily Summary

Daily Weather History Graph

Daily Weather History Graph

Search for Another Location

Airport or City:

Astronomy

May. 20, 2019 Rise Set
Actual Time 5:37 AM CDT 7:57 PM CDT
Civil Twilight 5:07 AM CDT 8:27 PM CDT
Nautical Twilight 4:30 AM CDT 9:04 PM CDT
Astronomical Twilight 3:50 AM CDT 9:45 PM CDT
Moon 9:57 PM CDT (5/20) 7:05 AM CDT (5/20)
Length of Visible Light 15h 20m
Length of Day
14h 20m
Waning Gibbous, 96% of the Moon is Illuminated
May 20
Waning Gibbous
May 26
Last Quarter
Jun 3
New
Jun 10
First Quarter
Jun 17
Full

Hourly Weather History & Observations

Time (CDT) Temp. Dew Point Humidity Pressure Visibility Wind Dir Wind Speed Gust Speed Precip Events Conditions
12:56 AM 64.9 °F 57.9 °F 78% 29.93 in 10.0 mi West 4.6 mph - N/A   Clear
1:56 AM 64.9 °F 57.0 °F 75% 29.96 in 10.0 mi WNW 9.2 mph - N/A   Clear
2:56 AM 64.0 °F 55.9 °F 75% 29.97 in 10.0 mi NNW 6.9 mph - N/A   Clear
3:56 AM 62.1 °F 54.0 °F 75% 30.00 in 10.0 mi NNW 8.1 mph - N/A   Clear
4:56 AM 60.1 °F 50.0 °F 69% 30.01 in 10.0 mi NNW 4.6 mph - N/A   Clear
5:56 AM 59.0 °F 50.0 °F 72% 30.03 in 10.0 mi Calm Calm - N/A   Clear
6:56 AM 60.1 °F 53.1 °F 78% 30.06 in 10.0 mi Calm Calm - N/A   Clear
7:56 AM 63.0 °F 48.9 °F 60% 30.06 in 10.0 mi NW 3.5 mph - N/A   Clear
8:56 AM 64.0 °F 48.9 °F 58% 30.08 in 10.0 mi Variable 3.5 mph - N/A   Clear
9:56 AM 66.9 °F 51.1 °F 57% 30.08 in 10.0 mi West 4.6 mph - N/A   Clear
10:56 AM 68.0 °F 51.1 °F 55% 30.09 in 10.0 mi West 5.8 mph - N/A   Clear
11:56 AM 70.0 °F 51.1 °F 51% 30.08 in 10.0 mi West 10.4 mph - N/A   Clear
12:56 PM 72.0 °F 53.1 °F 51% 30.07 in 10.0 mi NW 6.9 mph - N/A   Clear
1:56 PM 72.0 °F 52.0 °F 49% 30.06 in 10.0 mi Variable 4.6 mph - N/A   Clear
2:56 PM 73.9 °F 53.1 °F 48% 30.04 in 10.0 mi West 8.1 mph - N/A   Clear
3:56 PM 73.9 °F 53.1 °F 48% 30.03 in 10.0 mi WSW 3.5 mph - N/A   Clear
4:56 PM 75.0 °F 54.0 °F 48% 30.04 in 10.0 mi Variable 6.9 mph - N/A   Clear
5:56 PM 73.9 °F 52.0 °F 46% 30.02 in 10.0 mi NW 5.8 mph - N/A   Clear
6:56 PM 71.1 °F 53.1 °F 53% 30.00 in 10.0 mi North 5.8 mph - N/A   Clear
7:56 PM 68.0 °F 55.0 °F 63% 29.99 in 10.0 mi NNE 8.1 mph - N/A   Clear
8:56 PM 66.9 °F 54.0 °F 63% 30.01 in 10.0 mi NE 9.2 mph - N/A   Clear
9:56 PM 64.0 °F 54.0 °F 70% 30.04 in 10.0 mi NE 11.5 mph - N/A   Clear
10:56 PM 62.1 °F 52.0 °F 70% 30.02 in 10.0 mi NE 13.8 mph - N/A   Clear
11:56 PM 60.1 °F 52.0 °F 75% 30.00 in 10.0 mi ENE 13.8 mph - N/A   Clear